Orbital Elements at Epoch 2459200.5 (2020-Dec-17.0) TDB
Reference: JPL 3 (heliocentric ecliptic J2000)
Element | Value | Uncertainty (1-sigma) | Units |
e | .7353841209508883 | 0.00029303 | |
a | 2.424750309904109 | 0.0023736 | au |
q | .6416274347298816 | 8.2468e-05 | au |
i | 1.595282117852466 | 0.00053295 | deg |
node | 25.03887707157391 | 0.0014321 | deg |
peri | 255.6627249506485 | 0.0011608 | deg |
M | 244.694468818001 | 0.35707 | deg |
tp | 2459642.219530794845 (2022-Mar-03.71953079) | 2.0165 | TDB |
period | 1379.110173259142 3.78 | 2.025 0.005544 | d yr |
n | .2610378829627806 | 0.0003833 | deg/d |
Q | 4.207873185078335 | 0.0041191 | au |
|
| | Orbit Determination Parameters
Additional Information
|